Weather History for Jonesboro, AR

Change the Weather History Date:

Monday, May 13, 2013

  Actual Average Record
Temperature  
Mean Temperature 62 °F 68 °F  
Max Temperature 76 °F 79 °F 94 °F (1916)
Min Temperature 47 °F 57 °F 40 °F (1910)
Degree Days  
Heating Degree Days 3 1  
Month to date heating degree days 70 25  
Since 1 July heating degree days 3555 3640  
Cooling Degree Days 0 4  
Month to date cooling degree days 19 43  
Year to date cooling degree days 68 90  
Growing Degree Days 12 (Base 50)    
Moisture  
Dew Point 47 °F    
Average Humidity 64    
Maximum Humidity 93    
Minimum Humidity 34    
Precipitation  
Precipitation 0.00 in 0.15 in 1.37 in (2004)
Month to date precipitation 4.59 2.40  
Year to date precipitation 21.12 19.07  
Snow  
Snow 0.00 in 0.00 in - ()
Month to date snowfall 0.0 0.0  
Since 1 July snowfall 11.0 4.8  
Snow Depth 0.00 in    
Sea Level Pressure  
Sea Level Pressure 30.18 in    
Wind  
Wind Speed 5 mph (South)    
Max Wind Speed 15 mph    
Max Gust Speed 30 mph    
Visibility 10 miles    
Events      
T = Trace of Precipitation, MM = Missing Value Source: NWS Daily Summary

Daily Weather History Graph

Daily Weather History Graph

Search for Another Location

Airport:

Trip Planner

Search our weather history database for the weather conditions in past years. The results will help you decide how hot, cold, wet, or windy it might be!

Date:

Astronomy

May. 13, 2013 Rise Set
Actual Time 5:58 AM CDT 7:59 PM CDT
Civil Twilight 5:30 AM CDT 8:28 PM CDT
Nautical Twilight 4:55 AM CDT 9:02 PM CDT
Astronomical Twilight 4:18 AM CDT 9:39 PM CDT
Moon 8:45 AM CDT (5/13) 11:09 PM CDT (5/13)
Length of Visible Light 14h 57m
Length of Day
14h 01m
Waxing Crescent, 12% of the Moon is Illuminated
May 13
Waxing Crescent
May 17
First Quarter
May 24
Full
May 31
Last Quarter
Jun 8
New

Hourly Weather History & Observations

Time (CDT) Temp. Dew Point Humidity Pressure Visibility Wind Dir Wind Speed Gust Speed Precip Events Conditions
12:53 AM 50.0 °F 41.0 °F 71% 30.18 in 10.0 mi West 4.6 mph - N/A   Clear
1:53 AM 52.0 °F 42.1 °F 69% 30.18 in 10.0 mi West 4.6 mph - N/A   Overcast
2:53 AM 51.1 °F 42.1 °F 71% 30.18 in 10.0 mi West 4.6 mph - N/A   Clear
3:53 AM 50.0 °F 42.1 °F 74% 30.19 in 10.0 mi WNW 4.6 mph - N/A   Clear
4:53 AM 48.0 °F 45.0 °F 89% 30.19 in 10.0 mi Calm Calm - N/A   Mostly Cloudy
5:53 AM 48.9 °F 46.0 °F 90% 30.20 in 10.0 mi ENE 3.5 mph - N/A   Overcast
6:53 AM 52.0 °F 48.0 °F 86% 30.22 in 10.0 mi Calm Calm - N/A   Mostly Cloudy
7:53 AM 55.9 °F 48.9 °F 77% 30.24 in 10.0 mi NE 3.5 mph - N/A   Partly Cloudy
8:53 AM 60.1 °F 46.9 °F 62% 30.26 in 10.0 mi East 3.5 mph - N/A   Clear
9:53 AM 64.0 °F 46.9 °F 54% 30.27 in 10.0 mi East 4.6 mph - N/A   Scattered Clouds
10:53 AM 66.9 °F 46.0 °F 47% 30.27 in 10.0 mi ESE 3.5 mph - N/A   Mostly Cloudy
11:53 AM 70.0 °F 42.1 °F 36% 30.24 in 10.0 mi SSE 5.8 mph - N/A   Partly Cloudy
12:53 PM 72.0 °F 44.1 °F 37% 30.22 in 10.0 mi Variable 4.6 mph - N/A   Scattered Clouds
1:53 PM 71.6 °F 41.0 °F 33% 30.20 in 10.0 mi South 8.1 mph - N/A   Mostly Cloudy
3:53 PM 75.9 °F 48.0 °F 37% 30.14 in 10.0 mi South 8.1 mph - N/A   Clear
4:53 PM 73.9 °F 50.0 °F 43% 30.13 in 10.0 mi SW 9.2 mph 19.6 mph N/A   Clear
5:53 PM 73.9 °F 51.1 °F 45% 30.12 in 10.0 mi South 9.2 mph - N/A   Partly Cloudy
6:53 PM 73.4 °F 50.0 °F 44% 30.11 in 10.0 mi South 10.4 mph - N/A   Clear
7:53 PM 71.1 °F 53.1 °F 53% 30.10 in 10.0 mi South 8.1 mph - N/A   Clear
8:53 PM 68.0 °F 54.0 °F 61% 30.10 in 10.0 mi South 4.6 mph - N/A   Clear
9:53 PM 66.0 °F 54.0 °F 65% 30.11 in 10.0 mi South 5.8 mph - N/A   Clear
10:53 PM 64.9 °F 54.0 °F 68% 30.10 in 10.0 mi South 6.9 mph - N/A   Clear
11:53 PM 64.0 °F 54.0 °F 70% 30.09 in 10.0 mi South 4.6 mph - N/A   Clear